User: anonymous   Login
Location: Prairie State College
(41.5244°N, 87.6382°W)
Time: 12:49:38
(UTC-05:00)
Language:

MSX - Orbit

View from above orbital plane
View from above orbital plane
View from above satellite
View from above satellite

Ground track
Ground track

The orbit data is extracted from the following two-line orbital elements,

1 23851U 96024A   15120.08766329 0.00000100  00000-0  70499-4 0    07
2 23851  98.7278 156.2167 0008394 330.8765  29.1234 13.98010547    05
Epoch (UTC): 30 April 2015 02:06:14
Eccentricity: 0.0008394
inclination: 98.7278°
perigee height: 894 km
apogee height: 907 km
right ascension of ascending node: 156.2167°
argument of perigee: 330.8765°
revolutions per day: 13.98010547
mean anomaly at epoch: 29.1234°
orbit number at epoch: 0

The dashed part of the orbit path shows where the satellite is in the earth's shadow,  

DLR